Altus AFB, OK

4:48 PM CDT on August 19, 2017 (GMT -0500)
Altus Air Force Base

Weather History for KLTS - October, 2014

Change the Weather History Date:

Tuesday, October 7, 2014

  Actual Average Record
Temperature  
Mean Temperature 75 °F -  
Max Temperature 97 °F 77 °F 97 °F (2014)
Min Temperature 53 °F 55 °F 39 °F (2012)
Cooling Degree Days 10    
Growing Degree Days 25 (Base 50)    
Moisture  
Dew Point 52 °F    
Average Humidity 65    
Maximum Humidity 100    
Minimum Humidity 13    
Precipitation  
Precipitation 0.00 in - - ()
Sea Level Pressure  
Sea Level Pressure 29.82 in    
Wind  
Wind Speed 5 mph (SE)    
Max Wind Speed 10 mph    
Max Gust Speed -    
Visibility 9 miles    
Events      
Averages and records for this station are not official NWS values.
T = Trace of Precipitation, MM = Missing Value Source: NWS Daily Summary

Daily Weather History Graph

Daily Weather History Graph

Search for Another Location

Airport or City:

Trip Planner

Search our weather history database for the weather conditions in past years. The results will help you decide how hot, cold, wet, or windy it might be!

Date:

Astronomy

Oct. 07, 2014 Rise Set
Actual Time 7:36 AM CDT 7:12 PM CDT
Civil Twilight 7:11 AM CDT 7:38 PM CDT
Nautical Twilight 6:41 AM CDT 8:07 PM CDT
Astronomical Twilight 6:12 AM CDT 8:36 PM CDT
Moon 6:48 PM CDT (10/7) 6:37 AM CDT (10/7)
Length of Visible Light 12h 26m
Length of Day
11h 36m
Waxing Gibbous, 99% of the Moon is Illuminated
Oct 7
Waxing Gibbous
Oct 8
Full
Oct 15
Last Quarter
Oct 23
New
Oct 30
First Quarter

Hourly Weather History & Observations

Time (CDT) Temp. Dew Point Humidity Pressure Visibility Wind Dir Wind Speed Gust Speed Precip Events Conditions
12:58 AM 64.9 °F 55.2 °F 71% 29.77 in 10.0 mi SE 6.9 mph - N/A   Clear
1:58 AM 61.5 °F 55.2 °F 80% 29.78 in 10.0 mi East 2.3 mph - N/A   Clear
2:58 AM 60.4 °F 59.0 °F 95% 29.76 in 10.0 mi ESE 6.9 mph - N/A   Clear
3:58 AM 62.2 °F 61.3 °F 97% 29.75 in 10.0 mi ESE 4.6 mph - N/A   Clear
4:58 AM 58.8 °F 58.8 °F 100% 29.76 in 10.0 mi SE 4.6 mph - N/A   Clear
5:23 AM 59.0 °F 59.0 °F 100% 29.80 in 6.0 mi SE 6.9 mph - N/A   Clear
5:28 AM 60.8 °F 60.8 °F 100% 29.81 in 6.0 mi SE 4.6 mph - N/A   Clear
5:33 AM 60.8 °F 60.8 °F 100% 29.80 in 9.0 mi SE 5.8 mph - N/A   Clear
5:38 AM 59.0 °F 59.0 °F 100% 29.81 in 10.0 mi SE 5.8 mph - N/A   Clear
5:53 AM 59.0 °F 59.0 °F 100% 29.81 in 9.0 mi SE 5.8 mph - N/A   Clear
5:58 AM 58.3 °F 58.3 °F 100% 29.77 in 9.0 mi SE 5.8 mph - N/A   Clear
6:03 AM 57.2 °F 57.2 °F 100% 29.81 in 9.0 mi SE 4.6 mph - N/A   Clear
6:58 AM 54.9 °F 54.9 °F 100% 29.79 in 6.0 mi SE 3.5 mph - N/A   Clear
7:23 AM 53.6 °F 53.6 °F 100% 29.83 in 1.5 mi South 2.3 mph - N/A   Clear
7:28 AM 53.6 °F 53.6 °F 100% 29.83 in 1.5 mi South 2.3 mph - N/A   Clear
7:33 AM 55.4 °F 55.4 °F 100% 29.84 in 6.0 mi South 2.3 mph - N/A   Clear
7:38 AM 55.4 °F 55.4 °F 100% 29.83 in 10.0 mi South 3.5 mph - N/A   Clear
7:58 AM 54.5 °F 54.5 °F 100% 29.81 in 10.0 mi Calm Calm - N/A   Clear
8:58 AM 61.2 °F 57.6 °F 88% 29.85 in 10.0 mi WNW 1.2 mph - N/A   Clear
9:58 AM 68.9 °F 55.2 °F 62% 29.85 in 10.0 mi Variable 1.2 mph - N/A   Clear
10:58 AM 75.6 °F 52.2 °F 44% 29.86 in 10.0 mi SW 5.8 mph - N/A   Clear
11:58 AM 81.9 °F 49.3 °F 32% 29.86 in 10.0 mi SSW 5.8 mph - N/A   Clear
12:55 PM 86.5 °F 48.2 °F 26% 29.84 in 10.0 mi WSW 6.9 mph - N/A   Clear
1:58 PM 90.7 °F 46.9 °F 22% 29.81 in 10.0 mi Variable 2.3 mph - N/A   Clear
2:03 PM 91.4 °F 46.4 °F 21% 29.85 in 10.0 mi Variable 2.3 mph - N/A   Clear
2:58 PM 93.2 °F 46.4 °F 20% 29.80 in 10.0 mi SE 8.1 mph - N/A   Clear
3:58 PM 96.8 °F 44.1 °F 16% 29.78 in 10.0 mi SE 9.2 mph - N/A   Clear
4:58 PM 97.7 °F 38.1 °F 13% 29.77 in 10.0 mi Variable 2.3 mph - N/A   Clear
5:58 PM 95.7 °F 39.6 °F 14% 29.78 in 10.0 mi SW 10.4 mph - N/A   Clear
6:58 PM 88.9 °F 43.3 °F 20% 29.79 in 10.0 mi South 1.2 mph - N/A   Clear
7:58 PM 79.3 °F 44.6 °F 29% 29.81 in 10.0 mi SE 2.3 mph - N/A   Clear
8:58 PM 73.6 °F 44.8 °F 36% 29.84 in 10.0 mi East 3.5 mph - N/A   Clear
9:58 PM 70.0 °F 45.5 °F 41% 29.86 in 10.0 mi NNE 3.5 mph - N/A   Clear
10:32 PM 69.8 °F 44.6 °F 40% 29.86 in 10.0 mi NE 8.1 mph - N/A   Clear
10:36 PM 69.8 °F 44.6 °F 40% 29.87 in 10.0 mi NNE 8.1 mph - N/A   Clear
10:58 PM 67.1 °F 45.1 °F 45% 29.87 in 10.0 mi NNE 6.9 mph - N/A   Clear
11:58 PM 64.9 °F 45.1 °F 49% 29.87 in 10.0 mi NNE 6.9 mph - N/A   Clear